Hourly Data Report for September 10, 2020

BRIER ISLAND
NOVA SCOTIA
Current Station Operator: ECCC - MSC

44°17'09.000" N
66°20'48.000" W
15.80 m
8200604
71988
WVU

Download Data

Hourly Data (September 2020)
Hourly Data Report for September 10, 2020
TIME Temp Definition
°C
Dew Point Definition
°C
Rel Hum Definition
%
Wind Dir Definition
10's deg

Wind Spd Definition
km/h
Visibility Definition
km
Stn Press Definition
kPa
Hmdx Definition


Wind Chill Definition


Weather Definition


00:00 15.6 15.6 100 16 11   102.61     LegendNANA
01:00 15.4 15.4 100 16 14   102.58     LegendNANA
02:00 15.3 15.3 100 17 4   102.56     LegendNANA
03:00 14.5 14.5 100 16 7   102.50     LegendNANA
04:00 14.7 14.7 100 15 3   102.46     LegendNANA
05:00 15.0 15.0 100 19 4   102.44     LegendNANA
06:00 15.5 15.5 100 15 18   102.38     LegendNANA
07:00 15.8 15.8 100 15 18   102.38     LegendNANA
08:00 16.3 16.3 100 15 19   102.35     LegendNANA
09:00 15.9 15.9 100 15 17   102.37     LegendNANA
10:00 16.7 16.7 100 15 20   102.35     LegendNANA
11:00 17.1 17.1 100 15 17   102.30     LegendNANA
12:00 16.8 16.8 100 16 11   102.24     LegendNANA
13:00 19.3 19.3 100 19 13   102.15     LegendNANA
14:00 19.2 19.2 100 17 12   102.08     LegendNANA
15:00 18.8 18.8 100 17 13   102.00     LegendNANA
16:00 15.6 15.6 100 15 16   101.95     LegendNANA
17:00 15.5 15.5 100 16 14   101.90     LegendNANA
18:00 18.6 18.6 100 18 15   101.88     LegendNANA
19:00 15.6 15.6 100 17 14   101.81     LegendNANA
20:00 15.2 15.2 100 16 15   101.78     LegendNANA
21:00 16.5 16.5 100 16 16   101.71     LegendNANA
22:00 15.7 15.7 100 17 14   101.67     LegendNANA
23:00 18.5 18.5 100 19 16   101.61     LegendNANA

Notes on Data Quality.

Legend

  • E = Estimated
  • M = Missing
  • NA = Not Available*
  • [empty] = Indicates an unobserved value
Date modified: